Change the Weather History Date:

Monday, February 25, 2013

  Actual Average Record
Temperature  
Mean Temperature 49 °F -  
Max Temperature 63 °F 63 °F 76 °F (1991)
Min Temperature 34 °F 43 °F 31 °F (1987)
Degree Days  
Heating Degree Days 16    
Cooling Degree Days 0    
Moisture  
Dew Point 34 °F    
Average Humidity 63    
Maximum Humidity 82    
Minimum Humidity 43    
Precipitation  
Precipitation 0.00 in 0.12 in 1.67 in (2004)
Month to date precipitation 0.36 3.11  
Year to date precipitation 1.32 6.75  
Since 1 July precipitation 12.61  
Sea Level Pressure  
Sea Level Pressure 30.22 in    
Wind  
Wind Speed 4 mph (WSW)    
Max Wind Speed 13 mph    
Max Gust Speed 16 mph    
Visibility 10 miles    
Events      
T = Trace of Precipitation, MM = Missing Value Source: NWS Daily Summary

Daily Weather History Graph

Daily Weather History Graph

Search for Another Location

Airport or City:

Trip Planner

Search our weather history database for the weather conditions in past years. The results will help you decide how hot, cold, wet, or windy it might be!

Date:

Astronomy

Feb. 25, 2013 Rise Set
Actual Time 6:43 AM PST 5:55 PM PST
Civil Twilight 6:16 AM PST 6:21 PM PST
Nautical Twilight 5:45 AM PST 6:52 PM PST
Astronomical Twilight 5:15 AM PST 7:23 PM PST
Moon 6:13 PM PST (2/25) 6:16 AM PST (2/25)
Length of Visible Light 12h 05m
Length of Day
11h 12m
Full, 100% of the Moon is Illuminated
Feb 25
Full
Feb 25
Full
Mar 4
Last Quarter
Mar 11
New
Mar 19
First Quarter

Hourly Weather History & Observations

Time (PST) Temp. Windchill Dew Point Humidity Pressure Visibility Wind Dir Wind Speed Gust Speed Precip Events Conditions
12:53 AM 44.1 °F 41.5 °F 30.0 °F 58% 30.25 in 10.0 mi ESE 4.6 mph - N/A   Clear
1:53 AM 43.0 °F - 30.0 °F 60% 30.25 in 10.0 mi Calm Calm - N/A   Clear
2:53 AM 39.9 °F 37.8 °F 30.9 °F 70% 30.26 in 10.0 mi SSW 3.5 mph - N/A   Clear
3:53 AM 37.0 °F - 30.0 °F 76% 30.26 in 10.0 mi Calm Calm - N/A   Clear
4:53 AM 35.1 °F 32.2 °F 28.9 °F 78% 30.25 in 10.0 mi South 3.5 mph - N/A   Clear
5:53 AM 36.0 °F 32.1 °F 30.0 °F 79% 30.24 in 10.0 mi SSE 4.6 mph - N/A   Clear
6:53 AM 36.0 °F - 30.0 °F 79% 30.27 in 10.0 mi Calm Calm - N/A   Clear
7:53 AM 42.1 °F 40.2 °F 34.0 °F 73% 30.27 in 10.0 mi SSE 3.5 mph - N/A   Clear
8:53 AM 48.0 °F - 34.0 °F 58% 30.27 in 10.0 mi South 5.8 mph - N/A   Clear
9:53 AM 52.0 °F - 37.0 °F 57% 30.25 in 10.0 mi SE 4.6 mph - N/A   Clear
10:53 AM 54.0 °F - 37.0 °F 53% 30.25 in 10.0 mi Variable 3.5 mph - N/A   Clear
11:53 AM 57.0 °F - 37.9 °F 49% 30.24 in 10.0 mi Calm Calm - N/A   Clear
12:53 PM 59.0 °F - 39.9 °F 49% 30.22 in 10.0 mi SW 3.5 mph - N/A   Clear
1:53 PM 61.0 °F - 42.1 °F 50% 30.22 in 10.0 mi Variable 6.9 mph - N/A   Clear
2:53 PM 62.1 °F - 39.9 °F 44% 30.20 in 10.0 mi NNW 6.9 mph - N/A   Clear
3:53 PM 62.1 °F - 37.9 °F 41% 30.19 in 10.0 mi NNW 9.2 mph - N/A   Clear
4:53 PM 61.0 °F - 32.0 °F 34% 30.17 in 10.0 mi NNW 10.4 mph - N/A   Clear
5:53 PM 57.0 °F - 30.0 °F 36% 30.17 in 10.0 mi NNW 8.1 mph - N/A   Clear
6:53 PM 53.1 °F - 30.9 °F 43% 30.18 in 10.0 mi WNW 3.5 mph - N/A   Clear
7:53 PM 52.0 °F - 35.1 °F 53% 30.18 in 10.0 mi NNW 5.8 mph - N/A   Clear
8:53 PM 48.0 °F - 33.1 °F 56% 30.19 in 10.0 mi Calm Calm - N/A   Clear
9:53 PM 43.0 °F - 34.0 °F 71% 30.19 in 10.0 mi Calm Calm - N/A   Clear
10:53 PM 44.1 °F - 33.1 °F 65% 30.19 in 10.0 mi Calm Calm - N/A   Clear
11:53 PM 41.0 °F 39.0 °F 30.9 °F 67% 30.19 in 10.0 mi WNW 3.5 mph - N/A   Clear